Baku, Azerbaijan

12:12 PM +04 on June 23, 2018 (GMT +0400)
Bina

Weather History for UBBB - March, 2018

Change the Weather History Date:

Sunday, March 4, 2018

  Actual Average (WUND) Record (WUND)
Temperature  
Mean Temperature 56 °F -  
Max Temperature 70 °F - - (-1)
Min Temperature 42 °F - - (-1)
Degree Days  
Heating Degree Days 9    
Growing Degree Days 6 (Base 50)    
Moisture  
Dew Point 43 °F    
Average Humidity 80    
Maximum Humidity 93    
Minimum Humidity 40    
Precipitation  
Precipitation 0.00 in - - ()
Sea Level Pressure  
Sea Level Pressure 29.67 in    
Wind  
Wind Speed 18 mph ()    
Max Wind Speed 30 mph    
Max Gust Speed 43 mph    
Visibility 6.1 miles    
Events      
Averages and records for this station are not official NWS values.
T = Trace of Precipitation, MM = Missing Value Source: Averaged Metar Reports

Daily Weather History Graph

Daily Weather History Graph

Search for Another Location

Airport or City:

Astronomy

Mar. 04, 2018 Rise Set
Actual Time 7:09 AM +04 6:34 PM +04
Civil Twilight 6:42 AM +04 7:01 PM +04
Nautical Twilight 6:10 AM +04 7:33 PM +04
Astronomical Twilight 5:38 AM +04 8:04 PM +04
Moon 9:18 PM +04 (3/4) 8:38 AM +04 (3/4)
Length of Visible Light 12h 19m
Length of Day
11h 24m
Waning Gibbous, 93% of the Moon is Illuminated
Mar 4
Waning Gibbous
Mar 9
Last Quarter
Mar 17
New
Mar 24
First Quarter
Mar 31
Full

Hourly Weather History & Observations

Time (+04) Temp. Windchill Dew Point Humidity Pressure Visibility Wind Dir Wind Speed Gust Speed Precip Events Conditions
12:00 AM 48.2 °F - 46.4 °F 93% 29.80 in 6.2 mi South 20.7 mph - N/A   Mostly Cloudy
12:30 AM 48.2 °F - 46.4 °F 93% 29.80 in 6.2 mi South 20.7 mph - N/A   Mostly Cloudy
1:00 AM 47 °F - 45 °F 89% 29.79 in 6 mi SE 20.1 mph - -   Overcast
1:00 AM 48.2 °F - 46.4 °F 93% 29.77 in 6.2 mi South 19.6 mph - N/A   Mostly Cloudy
1:30 AM 48.2 °F - 44.6 °F 87% 29.74 in 6.2 mi South 23.0 mph 34.5 mph N/A   Mostly Cloudy
2:00 AM 48.2 °F - 46.4 °F 93% 29.74 in 6.2 mi SSW 25.3 mph 36.8 mph N/A   Mostly Cloudy
2:30 AM 48.2 °F - 44.6 °F 87% 29.74 in 6.2 mi SSW 26.5 mph 38.0 mph N/A   Mostly Cloudy
3:00 AM 48.2 °F - 46.4 °F 93% 29.71 in 6.2 mi SSW 21.9 mph 33.4 mph N/A   Mostly Cloudy
3:30 AM 48.2 °F - 46.4 °F 93% 29.71 in 6.2 mi South 29.9 mph 42.6 mph N/A   Mostly Cloudy
4:00 AM 47 °F - 44 °F 86% 29.71 in 6 mi SSE 22.4 mph - -   Overcast
4:00 AM 48.2 °F - 44.6 °F 87% 29.71 in 6.2 mi South 26.5 mph 40.3 mph N/A   Mostly Cloudy
4:30 AM 48.2 °F - 44.6 °F 87% 29.68 in 6.2 mi South 25.3 mph 36.8 mph N/A   Mostly Cloudy
5:00 AM 48.2 °F - 44.6 °F 87% 29.71 in 6.2 mi South 26.5 mph - N/A   Overcast
5:30 AM 48.2 °F - 44.6 °F 87% 29.68 in 6.2 mi SSW 18.4 mph - N/A   Mostly Cloudy
6:00 AM 48.2 °F - 44.6 °F 87% 29.68 in 6.2 mi SSW 26.5 mph 39.1 mph N/A   Mostly Cloudy
6:30 AM 46.4 °F 38.7 °F 44.6 °F 93% 29.65 in 6.2 mi South 20.7 mph 34.5 mph N/A   Overcast
7:00 AM 47 °F - 44 °F 84% 29.67 in 6 mi SSE 13.4 mph - -   Overcast
7:00 AM 46.4 °F 38.5 °F 44.6 °F 93% 29.65 in 6.2 mi SSW 21.9 mph - N/A   Mostly Cloudy
7:30 AM 46.4 °F 38.3 °F 44.6 °F 93% 29.65 in 6.2 mi SSW 23.0 mph - N/A   Mostly Cloudy
8:00 AM 46.4 °F 38.7 °F 42.8 °F 87% 29.65 in 6.2 mi South 20.7 mph - N/A   Mostly Cloudy
8:30 AM 46.4 °F 40.4 °F 42.8 °F 87% 29.65 in 6.2 mi South 13.8 mph - N/A   Mostly Cloudy
9:00 AM 48.2 °F - 42.8 °F 82% 29.65 in 6.2 mi SSW 20.7 mph - N/A   Mostly Cloudy
9:30 AM 48.2 °F - 42.8 °F 82% 29.65 in - South 15.0 mph - N/A   Clear
10:00 AM 51 °F - 44 °F 68% 29.63 in 6 mi SSE 15.7 mph - -   Mostly Cloudy
10:00 AM 53.6 °F - 42.8 °F 67% 29.62 in - SSW 11.5 mph - N/A   Clear
10:30 AM 53.6 °F - 42.8 °F 67% 29.62 in - SSW 15.0 mph - N/A   Clear
11:00 AM 55.4 °F - 44.6 °F 67% 29.62 in - South 18.4 mph - N/A   Clear
11:30 AM 53.6 °F - 44.6 °F 72% 29.62 in - South 19.6 mph - N/A   Clear
12:00 PM 53.6 °F - 44.6 °F 72% 29.59 in - South 18.4 mph - N/A   Clear
12:30 PM 59.0 °F - 44.6 °F 59% 29.62 in - South 13.8 mph - N/A   Clear
1:00 PM 61 °F - 45 °F 45% 29.60 in 6 mi SSE 15.7 mph - -   Partly Cloudy
1:00 PM 60.8 °F - 42.8 °F 52% 29.59 in - SSW 15.0 mph - N/A   Clear
1:30 PM 62.6 °F - 42.8 °F 48% 29.59 in - South 11.5 mph - N/A   Clear
2:00 PM 64.4 °F - 44.6 °F 49% 29.56 in - SSW 12.7 mph - N/A   Clear
2:30 PM 68.0 °F - 44.6 °F 43% 29.56 in - SW 15.0 mph - N/A   Clear
3:00 PM 69.8 °F - 44.6 °F 40% 29.56 in - SSW 12.7 mph - N/A   Clear
3:30 PM 62.6 °F - 46.4 °F 55% 29.56 in - NW 9.2 mph - N/A   Clear
4:00 PM 57 °F - 44 °F 52% 29.59 in 6 mi West 17.9 mph - -   Mostly Cloudy
4:00 PM 53.6 °F - 42.8 °F 67% 29.59 in - NW 13.8 mph - N/A   Clear
4:30 PM 44.6 °F 36.9 °F 41.0 °F 87% 29.65 in 6.2 mi NW 18.4 mph - N/A   Mostly Cloudy
5:00 PM 44.6 °F 35.9 °F 41.0 °F 87% 29.65 in 6.2 mi WNW 23.0 mph 34.5 mph N/A   Mostly Cloudy
5:30 PM 42.8 °F 33.8 °F 41.0 °F 93% 29.68 in 6.2 mi NW 21.9 mph - N/A   Overcast
6:00 PM 44.6 °F 36.1 °F 41.0 °F 87% 29.68 in 6.2 mi NW 21.9 mph 33.4 mph N/A   Overcast
6:30 PM 44.6 °F 36.6 °F 41.0 °F 87% 29.68 in 6.2 mi NW 19.6 mph - N/A   Mostly Cloudy
7:00 PM 44 °F - 40 °F 83% 29.69 in 6 mi WNW 22.4 mph - -   Overcast
7:00 PM 44.6 °F 35.9 °F 41.0 °F 87% 29.68 in 6.2 mi NW 23.0 mph - N/A   Mostly Cloudy
7:30 PM 44.6 °F 36.4 °F 41.0 °F 87% 29.68 in 6.2 mi NW 20.7 mph - N/A   Partly Cloudy
8:00 PM 44.6 °F 36.4 °F 41.0 °F 87% 29.68 in 6.2 mi NW 20.7 mph - N/A   Partly Cloudy
8:30 PM 44.6 °F 36.4 °F 41.0 °F 87% 29.68 in 6.2 mi NW 20.7 mph - N/A   Partly Cloudy
9:00 PM 44.6 °F 37.4 °F 41.0 °F 87% 29.68 in 6.2 mi NW 16.1 mph - N/A   Partly Cloudy
9:30 PM 44.6 °F 39.7 °F 41.0 °F 87% 29.71 in 6.2 mi NW 9.2 mph - N/A   Mostly Cloudy
10:00 PM 44 °F - 40 °F 83% 29.70 in 6 mi WNW 4.5 mph - -   Overcast
10:00 PM 44.6 °F 39.7 °F 41.0 °F 87% 29.71 in 6.2 mi NW 9.2 mph - N/A   Mostly Cloudy
10:30 PM 44.6 °F 39.7 °F 42.8 °F 93% 29.71 in 6.2 mi NW 9.2 mph - N/A   Mostly Cloudy
11:00 PM 42.8 °F 37.0 °F 41.0 °F 93% 29.68 in 5.0 mi NW 10.4 mph - N/A   Mostly Cloudy
11:30 PM 42.8 °F 37.5 °F 41.0 °F 93% 29.65 in 5.0 mi NW 9.2 mph - N/A   Mostly Cloudy